Home   Weather   Olongapo   Past weeks

Flag for Philippines Past Weather in Olongapo, Philippines — Yesterday and Last 2 Weeks

Now
77 °F

Passing clouds.


Feels Like: 79 °F
Forecast: 77 / 91 °F
Wind: 2 mph from North

Location: Subic Bay Weather Station

Current Time: Feb 25, 2017 at 6:00:24 am

Latest Report: Feb 25, 2017 at 5:00 am


Visibility: N/A

Pressure: 29.86 "Hg

Humidity: 79%

Dew Point: 70 °F

Location of OlongapoLocation

Past Weather in Olongapo — Graph

°F

Olongapo Temperature Yesterday

Maximum temperature yesterday: 91 °F (at 2:00 pm)
Minimum temperature yesterday: 75 °F (at 2:00 am)
Average temperature yesterday: 83 °F

High & Low Weather Summary for the Past Weeks

 TemperatureHumidityPressure
High91 °F (Feb 20, 1:00 pm)89% (Feb 21, 4:00 am)30.15 "Hg (Feb 21, 4:00 am)
Low66 °F (Feb 15, 3:00 am)35% (Feb 14, 1:00 pm)29.80 "Hg (Feb 22, 5:00 pm)
Average79 °F62%29.96 "Hg
* Reported Feb 10 5:00 am — Feb 25 5:00 am, Olongapo, Weather by CustomWeather, © 2017

Note: Actual official high and low records may vary slightly from our data, if they occured in-between our weather recording intervals... More about our weather records

Advertising

Olongapo Weather History for the Previous 24 Hours

Scroll right to see more
 ConditionsComfort  
Time TempWeatherWind HumidityBarometerVisibility
5:00 am
Sat, Feb 25
77 °FPassing clouds.2 mph79%29.86 "HgN/A
4:00 am77 °FPassing clouds.6 mph79%29.86 "HgN/A
3:00 am77 °FPassing clouds.5 mph79%29.89 "HgN/A
2:00 am79 °FPassing clouds.5 mph70%29.89 "HgN/A
1:00 am79 °FPassing clouds.3 mph70%29.92 "HgN/A
12:00 am79 °FPassing clouds.2 mph70%29.92 "HgN/A
11:00 pm
Fri, Feb 24
81 °FPassing clouds.7 mph66%29.95 "HgN/A
10:00 pm82 °FPassing clouds.5 mph70%29.95 "HgN/A
9:00 pm82 °FPassing clouds.3 mph70%29.95 "HgN/A
8:00 pm84 °FPassing clouds.5 mph62%29.92 "HgN/A
7:00 pm84 °FPassing clouds.6 mph62%29.89 "HgN/A
6:00 pm86 °FScattered clouds.10 mph55%29.89 "HgN/A
5:00 pm90 °FPartly sunny.12 mph49%29.86 "HgN/A
4:00 pm91 °FScattered clouds.9 mph46%29.86 "HgN/A
3:00 pm91 °FScattered clouds.10 mph46%29.86 "HgN/A
2:00 pm91 °FPartly sunny.10 mph46%29.89 "HgN/A
1:00 pm90 °FPartly sunny.10 mph49%29.92 "HgN/A
12:00 pm88 °FPartly sunny.10 mph52%29.95 "HgN/A
11:00 am88 °FPartly sunny.16 mph55%29.98 "HgN/A
10:00 am84 °FScattered clouds.12 mph62%29.98 "HgN/A
9:00 am82 °FScattered clouds.12 mph66%29.95 "HgN/A
8:00 am79 °FPartly sunny.5 mph79%29.95 "HgN/A
7:00 am75 °FPartly sunny.5 mph89%29.92 "HgN/A
6:00 am75 °FPassing clouds.7 mph83%29.92 "HgN/A
Weather by CustomWeather, © 2017

See weather overviewHow to use our weather pages